www.pogodaiklimat.ru

Погода и климат >> Архив погоды >> Австралия >> Новый Южный Уэльс >> Милдьюра


ПОГОДА в Милдьюре

  • Прогноз погоды в Милдьюре
  • Монитор погоды в Милдьюре

АРХИВ ПОГОДЫ в Милдьюре

Время (UTC), дата Ветер
(напр.,м/с)
 
Видим.   Явления Облачность Т
(С)
Тd
(С)
f
(%)
Тe
(С)
Тes
(С)
Комфортность P
(гПа)
Po
(гПа)
Тmin
(С)
Tmax
(С)
R
(мм)
R24
(мм)
S
(см)
01 13.06 З 5 н/о н/о +14.0 +10.6 80 +12 +12 1020.2 1014.0
02 13.06 З 5 н/о н/о +15.4 +9.1 66 +14 +14 1019.8 1013.6 +8.0
03 13.06 З 5 н/о н/о +15.9 +9.3 65 +15 +15 1019.2 1013.0
04 13.06 З 4 н/о н/о +16.7 +9.6 63 +16 +16 1018.9 1012.7
05 13.06 З 5 35 км 5/0
[]
+16.7 +7.4 54 +16 +17 1018.9 1012.7
06 13.06 З 4 н/о н/о +16.8 +7.7 55 +16 +16 1018.9 1012.7
07 13.06 З 2 н/о н/о +15.4 +7.9 61 +15 +15 1018.9 1012.7
08 13.06 штиль 0 н/о н/о +12.7 +8.6 76 +12 +12 1019.2 1013.0
09 13.06 СЗ 2 н/о н/о +12.2 +8.9 80 +12 +12 1020.1 1013.9
10 13.06 С 1 н/о н/о +11.1 +8.3 83 +12 +12 1020.6 1014.4
11 13.06 С 2 н/о 1/0
[]
+10.3 +8.6 89 +9 +9 1021.0 1014.8
12 13.06 С 2 н/о н/о +10.3 +9.1 92 +9 +9 1020.5 1014.3
13 13.06 С 2 н/о н/о +10.4 +8.7 89 +9 +9 1020.6 1014.4
14 13.06 С 2 н/о 9/9 1000 м
[]
+9.8 +8.6 92 +8 +8 1020.6 1014.4 +17.5
15 13.06 СЗ 2 н/о н/о +10.3 +7.9 85 +9 +9 1020.6 1014.4
16 13.06 СЗ 2 н/о н/о +10.0 +7.9 87 +8 +8 1020.6 1014.4
17 13.06 СЗ 2 н/о 8/8 1500 м
[]
+9.2 +8.1 93 +7 +7 1020.5 1014.3
18 13.06 СЗ 2 н/о н/о +8.1 +7.7 97 +6 +6 1020.3 1014.1
19 13.06 штиль 0 н/о н/о +7.1 +7.0 99 +6 +6 1019.9 1013.7
20 13.06 СЗ 1 н/о 9/0
[]
+6.8 +6.7 99 +7 +7 1020.1 1013.9
21 13.06 штиль 0 н/о н/о +6.0 +5.9 99 +5 +5 1020.7 1014.5
22 13.06 С 3 н/о н/о +7.1 +7.1 100 +4 +4 1021.3 1015.1
23 13.06 С 3 30 км {туман} 3/0
[]
+8.6 +8.5 99 +6 +6 1021.8 1015.6
00 14.06 СЗ 3 н/о н/о +12.1 +9.1 82 +10 +10 1022.2 1016.0
01 14.06 СЗ 3 н/о н/о +14.6 +9.0 69 +14 +14 1022.0 1015.8
02 14.06 З 4 н/о н/о +15.7 +9.6 67 +15 +15 1021.3 1015.1 +6.0
03 14.06 З 4 н/о н/о +16.7 +8.4 58 +16 +16 1020.6 1014.4
04 14.06 З 5 н/о н/о +17.5 +8.4 55 +17 +17 1020.1 1013.9
05 14.06 З 4 35 км 5/0
[]
+18.1 +8.1 52 +18 +20 1019.8 1013.6
06 14.06 З 4 н/о н/о +16.9 +8.3 57 +16 +16 1019.8 1013.6
07 14.06 СЗ 3 н/о н/о +15.8 +9.9 68 +15 +15 1020.1 1013.9
08 14.06 СЗ 2 н/о 10/10 1500 м
[]
+14.2 +10.4 78 +14 +14 1020.6 1014.4
09 14.06 СЗ 2 н/о н/о +13.0 +10.4 84 +12 +12 1021.1 1014.9
10 14.06 СЗ 2 н/о н/о +11.8 +10.5 92 +11 +11 1021.5 1015.3
11 14.06 СЗ 2 н/о 4/0 2000 м
[]
+11.0 +10.5 97 +10 +10 1021.8 1015.6
12 14.06 З 3 н/о н/о +9.9 +9.8 99 +8 +8 1021.9 1015.7
13 14.06 СЗ 1 н/о н/о +9.2 +9.1 99 +8 +8 1021.9 1015.7
14 14.06 СЗ 2 н/о н/о +8.8 +8.8 100 +7 +7 1021.7 1015.5 +18.3
15 14.06 штиль 0 н/о н/о +7.6 +7.6 100 +6 +6 1021.6 1015.4
16 14.06 СЗ 3 н/о н/о +8.2 +8.2 100 +6 +6 1021.8 1015.6
17 14.06 З 2 н/о н/о +7.8 +7.8 100 +5 +5 1021.6 1015.4
18 14.06 СЗ 1 н/о н/о +7.3 +7.3 100 +6 +6 1021.6 1015.4
19 14.06 СЗ 1 н/о н/о +6.5 +6.5 100 +5 +5 1021.4 1015.2
20 14.06 штиль 0 н/о н/о +5.2 +5.2 100 +4 +4 1021.8 1015.6
21 14.06 С 2 н/о н/о +5.0 +5.0 100 +3 +3 1022.5 1016.3
22 14.06 С 2 н/о н/о +5.2 +5.2 100 +2 +2 1022.9 1016.7
23 14.06 штиль 0 25 км 1/0
[]
+8.2 +8.2 100 +7 +9 1023.2 1017.0
00 15.06 СЗ 2 н/о н/о +12.1 +9.8 86 +11 +11 1023.5 1017.3
01 15.06 З 1 н/о н/о +14.5 +8.7 68 +15 +15 1023.4 1017.2
02 15.06 СЗ 1 н/о н/о +16.3 +8.8 61 +17 +17 1022.8 1016.6 +4.6
03 15.06 З 3 н/о н/о +16.9 +9.3 61 +17 +17 1022.2 1016.0
04 15.06 З 3 н/о н/о +17.2 +8.9 58 +17 +17 1021.6 1015.4
05 15.06 СЗ 3 н/о 1/1 1500 м
[]
+17.1 +8.3 56 +17 +19 1021.1 1014.9
06 15.06 СЗ 2 н/о н/о +17.1 +7.2 52 +17 +17 1021.1 1014.9
07 15.06 З 2 н/о н/о +16.0 +7.2 56 +16 +16 1021.4 1015.2
08 15.06 штиль 0 н/о н/о +12.7 +7.6 71 +12 +12 1021.7 1015.5
09 15.06 штиль 0 н/о н/о +10.9 +7.8 81 +10 +10 1022.0 1015.8
10 15.06 штиль 0 н/о н/о +10.0 +7.6 85 +9 +9 1022.2 1016.0
11 15.06 С 2 н/о н/о +9.7 +8.0 89 +8 +8 1022.2 1016.0
12 15.06 штиль 0 н/о н/о +8.5 +7.6 94 +8 +8 1022.0 1015.8
13 15.06 В 2 н/о н/о +8.3 +7.4 94 +7 +7 1021.5 1015.3
14 15.06 штиль 0 н/о н/о +7.7 +7.1 96 +7 +7 1021.6 1015.4 +18.3
15 15.06 С 2 н/о н/о +7.8 +7.1 95 +6 +6 1021.3 1015.1
16 15.06 штиль 0 н/о н/о +7.7 +7.6 99 +7 +7 1021.4 1015.2
17 15.06 В 2 н/о 10/0
[]
+8.6 +7.4 92 +7 +7 1021.4 1015.2
18 15.06 штиль 0 н/о н/о +8.7 +7.3 91 +8 +8 1021.3 1015.1
19 15.06 СЗ 4 н/о н/о +10.2 +8.8 91 +8 +8 1021.6 1015.4
20 15.06 СВ 2 н/о в посл. час дождь {туман} 10/10 600 м
[]
+10.4 +9.6 95 +9 +9 1021.7 1015.5
21 15.06 С 2 н/о н/о +10.0 +9.5 97 +9 +9 1022.1 1015.9
22 15.06 С 2 н/о н/о +9.7 +9.1 96 +8 +8 1022.6 1016.4
23 15.06 С 2 25 км осадки на расстоянии 10/0
[]
+10.8 +9.2 90 +9 +10 1022.9 1016.7
00 16.06 С 1 н/о н/о +11.5 +10.2 92 +12 +12 1023.6 1017.4
01 16.06 С 2 н/о н/о +13.2 +9.5 78 +12 +12 1023.5 1017.3
02 16.06 С 3 н/о 10/0 2000 м
[]
+13.9 +8.7 71 +13 +16 1022.9 1016.7 +7.6
03 16.06 С 2 н/о н/о +15.3 +7.8 61 +16 +16 1022.3 1016.1
04 16.06 СВ 1 н/о н/о +16.4 +7.9 57 +17 +17 1021.8 1015.6
05 16.06 СВ 2 н/о н/о +16.9 +6.4 50 +17 +17 1021.7 1015.5
06 16.06 СВ 3 н/о н/о +16.6 +8.6 59 +16 +16 1021.8 1015.6
07 16.06 СВ 2 н/о н/о +15.3 +8.5 64 +15 +15 1022.0 1015.8
08 16.06 В 1 н/о н/о +12.2 +7.7 74 +13 +13 1022.6 1016.4
09 16.06 штиль 0 н/о н/о +10.5 +7.4 81 +10 +10 1023.1 1016.9
10 16.06 В 2 н/о н/о +9.4 +7.0 85 +8 +8 1023.6 1017.4
11 16.06 штиль 0 н/о н/о +8.5 +7.3 92 +8 +8 1024.1 1017.8
12 16.06 С 2 н/о н/о +7.8 +7.4 97 +6 +6 1024.4 1018.1
13 16.06 С 2 н/о н/о +7.4 +7.3 99 +6 +6 1024.2 1017.9
14 16.06 С 2 н/о н/о +6.8 +6.7 99 +5 +5 1024.1 1017.8 +17.8
15 16.06 штиль 0 н/о н/о +5.7 +5.6 99 +5 +5 1024.1 1017.8
16 16.06 штиль 0 н/о н/о +5.2 +5.2 100 +4 +4 1023.5 1017.3
17 16.06 штиль 0 4500 м н/о +4.6 +4.6 100 +3 +3 1023.4 1017.2
18 16.06 С 3 н/о н/о +5.2 +5.2 100 +2 +2 1023.2 1017.0
19 16.06 С 1 н/о н/о +4.3 +4.3 100 +3 +3 1023.3 1017.1
20 16.06 штиль 0 6000 м н/о +3.9 +3.9 100 +3 +3 1023.7 1017.5
21 16.06 СВ 2 н/о н/о +3.1 +3.1 100 0 0 1023.8 1017.6
22 16.06 СВ 2 н/о н/о +4.0 +4.0 100 +1 +1 1024.1 1017.8
23 16.06 СВ 2 35 км ясно +7.3 +7.2 99 +5 +5 1024.6 1018.3
00 17.06 С 3 н/о н/о +10.7 +8.5 86 +9 +9 1024.7 1018.4
01 17.06 С 3 н/о н/о +14.1 +8.3 68 +13 +13 1024.8 1018.5
02 17.06 С 5 н/о н/о +15.6 +7.9 60 +15 +15 1023.9 1017.7 +3.1
03 17.06 С 4 н/о н/о +16.4 +7.3 55 +16 +16 1023.0 1016.8
04 17.06 С 4 н/о н/о +17.1 +6.0 48 +17 +17 1021.9 1015.7
05 17.06 С 4 35 км 1/0
[]
+17.1 +5.4 46 +17 +19 1021.6 1015.4
06 17.06 С 5 н/о н/о +16.9 +6.1 49 +16 +16 1021.5 1015.3
07 17.06 С 4 н/о н/о +15.7 +6.2 53 +15 +15 1021.2 1015.0
08 17.06 С 3 н/о н/о +13.3 +6.6 64 +12 +12 1021.2 1015.0
09 17.06 СВ 3 н/о н/о +11.4 +7.3 76 +10 +10 1021.0 1014.8
10 17.06 СВ 3 н/о н/о +10.7 +7.0 78 +9 +9 1021.0 1014.8
11 17.06 СВ 4 н/о 6/0 2000 м
[]
+10.9 +6.6 75 +9 +9 1020.8 1014.6
12 17.06 СВ 4 н/о н/о +11.3 +6.2 71 +9 +9 1020.6 1014.4
13 17.06 С 4 н/о н/о +11.9 +6.0 67 +10 +10 1020.4 1014.2
14 17.06 СЗ 3 н/о 10/0 2000 м
[]
+11.6 +5.7 67 +10 +10 1020.4 1014.2 +17.6
15 17.06 СЗ 2 н/о н/о +10.5 +5.7 72 +9 +9 1020.2 1014.0
16 17.06 С 2 н/о н/о +9.9 +5.7 75 +9 +9 1020.0 1013.8
17 17.06 С 2 н/о 10/0
[]
+8.5 +6.0 84 +7 +7 1019.7 1013.5
18 17.06 С 2 н/о н/о +7.8 +5.8 87 +6 +6 1019.6 1013.4
19 17.06 С 2 н/о н/о +7.7 +5.3 85 +6 +6 1019.7 1013.5
20 17.06 СЗ 3 н/о 4/4 600 м
[]
+8.2 +5.5 83 +6 +6 1020.1 1013.9
21 17.06 СЗ 3 н/о н/о +9.1 +6.0 81 +7 +7 1020.6 1014.4
22 17.06 З 4 н/о н/о +9.8 +6.9 82 +7 +7 1021.3 1015.1
23 17.06 З 3 25 км 8/0
[]
+10.3 +8.1 86 +8 +9 1022.0 1015.8
00 18.06 З 4 н/о н/о +11.6 +7.7 77 +9 +9 1022.9 1016.7
01 18.06 ЮЗ 6 н/о н/о +12.4 +6.0 65 +10 +10 1023.0 1016.8
02 18.06 З 5 н/о 4/4 600 м
[]
+13.8 +4.9 55 +12 +14 1023.0 1016.8 +7.3
03 18.06 ЮЗ 5 н/о н/о +13.6 +5.5 58 +12 +12 1022.6 1016.4
04 18.06 Ю 5 н/о н/о +14.1 +4.7 53 +13 +13 1022.2 1016.0
05 18.06 ЮЗ 6 н/о 10/10 1500 м
[]
+14.5 +2.4 44 +13 +13 1022.0 1015.8
06 18.06 ЮЗ 5 н/о н/о +13.3 +2.2 47 +12 +12 1022.5 1016.3
07 18.06 ЮЗ 4 н/о н/о +12.9 +2.7 50 +12 +12 1023.0 1016.8
08 18.06 ЮЗ 2 н/о н/о +9.9 +2.7 61 +9 +9 1023.6 1017.4
09 18.06 ЮЗ 3 н/о н/о +10.0 +1.6 56 +8 +8 1024.4 1018.1
10 18.06 ЮЗ 2 н/о н/о +8.7 +1.8 62 +7 +7 1025.0 1018.7
11 18.06 Ю 3 н/о н/о +7.7 +1.5 65 +6 +6 1025.4 1019.1
12 18.06 ЮЗ 3 н/о н/о +6.8 +1.9 71 +4 +4 1025.7 1019.4
13 18.06 Ю 3 н/о н/о +5.8 +1.9 76 +3 +3 1026.1 1019.8
14 18.06 ЮЗ 2 н/о н/о +5.0 +1.8 80 +2 +2 1026.4 1020.1 +15.0
15 18.06 ЮЗ 3 н/о н/о +4.4 +1.8 83 +1 +1 1026.1 1019.8
16 18.06 ЮЗ 3 н/о н/о +3.8 +1.7 86 0 0 1026.5 1020.2
17 18.06 Ю 3 н/о н/о +3.0 +1.5 90 -1 -1 1026.2 1019.9
18 18.06 ЮЗ 3 н/о н/о +2.5 +1.6 94 -1 -1 1026.3 1020.0
19 18.06 ЮЗ 3 н/о н/о +1.8 +1.4 97 -2 -2 1026.7 1020.4
20 18.06 Ю 3 н/о н/о +1.6 +1.3 98 -3 -3 1026.6 1020.3
21 18.06 штиль 0 н/о н/о +0.3 +0.2 99 -1 -1 1027.3 1021.0
22 18.06 ЮЗ 2 н/о н/о -0.3 -0.4 99 -4 -4 1027.8 1021.5
23 18.06 Ю 2 35 км ясно +3.1 +2.5 96 0 +2 1028.3 1022.0
00 19.06 Ю 2 н/о н/о +6.3 +3.5 82 +4 +4 1029.0 1022.7
01 19.06 Ю 3 н/о н/о +9.3 +3.7 68 +7 +7 1029.3 1023.0
02 19.06 Ю 3 н/о н/о +10.8 +3.6 61 +9 +9 1028.7 1022.4 -0.4
03 19.06 Ю 3 н/о н/о +11.3 +1.8 52 +10 +10 1027.7 1021.4
04 19.06 Ю 3 н/о н/о +12.4 +1.1 46 +11 +11 1027.1 1020.8
05 19.06 Ю 3 35 км 1/0
[]
+12.2 -0.6 41 +11 +13 1026.6 1020.3
06 19.06 ЮЗ 2 н/о н/о +11.4 -0.7 43 +11 +11 1026.8 1020.5
07 19.06 Ю 2 н/о н/о +10.6 -0.2 47 +10 +10 1026.9 1020.6
08 19.06 Ю 2 н/о 1/1 1500 м
[]
+8.3 -0.2 55 +7 +7 1027.1 1020.8
09 19.06 ЮВ 2 н/о н/о +6.0 -0.3 64 +4 +4 1027.1 1020.8
10 19.06 Ю 2 н/о н/о +5.1 -0.3 68 +3 +3 1027.2 1020.9
11 19.06 Ю 1 н/о 9/9 1500 м
[]
+5.4 +0.8 72 +6 +6 1027.5 1021.2
12 19.06 Ю 2 н/о н/о +6.4 -0.3 62 +5 +5 1027.3 1021.0
13 19.06 В 2 н/о н/о +5.9 +0.7 69 +4 +4 1027.1 1020.8
14 19.06 ЮЗ 2 н/о 9/9 1500 м
[]
+5.5 +0.7 71 +4 +4 1026.9 1020.6 +12.9
15 19.06 Ю 2 н/о н/о +6.7 -0.3 61 +5 +5 1026.8 1020.5
16 19.06 З 2 н/о н/о +6.2 +0.7 68 +5 +5 1026.6 1020.3
17 19.06 Ю 2 н/о 10/0 2000 м
[]
+6.7 +0.8 66 +5 +5 1026.5 1020.2
18 19.06 ЮЗ 2 н/о н/о +6.7 +1.4 69 +5 +5 1026.4 1020.1
19 19.06 З 2 н/о н/о +6.8 +1.5 69 +5 +5 1026.3 1020.0
20 19.06 В 1 н/о 10/0 2000 м
[]
+6.5 +1.8 72 +7 +7 1026.3 1020.0
21 19.06 Ю 2 н/о н/о +6.3 +1.4 71 +4 +4 1026.9 1020.6
22 19.06 З 2 н/о н/о +6.6 +1.5 70 +5 +5 1027.3 1021.0
23 19.06 З 2 н/о 10/0 2000 м
[]
+7.8 +2.1 67 +6 +7 1027.7 1021.4
00 20.06 З 3 н/о н/о +10.5 +0.5 50 +9 +9 1028.1 1021.8

 

Местоположение метеостанции Милдьюра (Новый Южный Уэльс, Австралия): широта -34.23 долгота 142.08 высота над уровнем моря 53 м.

В архиве по умолчанию представлена погода в Милдьюре за последнюю неделю. Архивные данные за месяц целиком и за предыдущие месяцы, начиная с января 2011 года, Вы можете получить, выбрав интересующий диапазон дат из раскрывающегося списка и нажав кнопку "Ввод!".


*Определитесь, кто Вы:
робот инопланетянин человек

Внимание! Время в таблицах - всемирное. Для получения местного времени необходимо прибавить поправку, которая равна 10 ч.

Смотрите также архив погоды в соседних городах и на ближайших метеорологических станциях:

Погода в Уолпеапе (Виктория, Австралия) (99 км)
Погода в Ренмарке (Южная Австралия, Австралия) (129 км)
Погода в Локстоне (Южная Австралия, Австралия) (138 км)
Погода в Хоптауне (Виктория, Австралия) (168 км)
Погода в Суон-Хилле (Виктория, Австралия) (184 км)
Погода в Ламеру (Южная Австралия, Австралия) (190 км)
Погода в Нхилле (Виктория, Австралия) (237 км)
Погода в Чарльтоне (Виктория, Австралия) (255 км)
Погода в Хее (Новый Южный Уэльс, Австралия) (255 км)
Погода в Брокен-Хилл аэропорту (Новый Южный Уэльс, Австралия) (255 км)

Пояснения к столбцам:

Ветер - указаны скорость ветра в м/с - средняя за 10 мин, порывы в срок и между сроками (в фигурных скобках) и направление, откуда дует ветер: С - северный, СВ - северо-восточный, В - восточный, ЮВ - юго-восточный, Ю - южный, ЮЗ - юго-западный, З - западный, СЗ - северо-западный.
Видимость - горизонтальная дальность видимости в метрах или километрах. При видимости от 1 до 10 км при отсутствии осадков обычно наблюдается дымка, при ухудшении видимости до 1 км и менее - туман. В сухую погоду видимость может ухудшаться дымом, пылью или мглою.
Явления - указаны атмосферные явления, наблюдавшиеся в срок или в последний час перед сроком; фигурными скобками обозначены явления, наблюдавшиеся между сроками (за 1-3 часа до срока); квадратными скобками обозначены град или гололедные отложения с указанием их диаметра в мм.
Облачность - указаны через наклонную черту общая и нижняя облачность в баллах и высота нижней границы облаков в метрах; квадратными скобками обозначены формы облаков: Ci - перистые, Cs - перисто-слоистые, Cc - перисто-кучевые, Ac - высококучевые, As - высокослоистые, Sc - слоисто-кучевые, Ns - слоисто-дождевые, Cu - кучевые, Cb - кучево-дождевые. Подробнее классификацию облаков см. в Атласе облаков (PDF).
T - Температура воздуха - температура, измеренная на высоте 2 м над землей.
Td - Температура точки росы - температура, при понижении до которой содержащийся в воздухе водяной пар достигнет насыщения.
f - Относительная влажность воздуха - влажноcть воздуха, измеренная на высоте 2 м над землей.
Te - Эффективная температура - температура, которую ощущает одетый по сезону человек в тени. Характеристика душности погоды. При расчете учитывается влияние влажности воздуха и скорости ветра на теплоощущения человека.
Tes - Эффективная температура на солнце - температура, которую ощущает человек, с поправкой на солнечный нагрев. Характеристика знойности погоды. Зависит от высоты солнца над горизонтом, облачности и скорости ветра. Ночью, в пасмурную погоду, а также при ветре 12 м/с и более поправка равна нулю.
P - Атмосферное давление - приведенное к уровню моря атмосферное давление.
Po - Атмосферное давление - измеренное на уровне метеостанции атмосферное давление.
Tmin - Минимальная температура - минимум температуры воздуха на высоте 2 м над землей.
Tmax - Максимальная температура - максимум температуры воздуха на высоте 2 м над землей.
R - Количество осадков - Количество выпавших осадков за период времени, мм. При наведении курсора мыши на число - период времени, за который выпало указанное количество осадков.
R24 - Количество осадков - Количество выпавших осадков за 24 часа, мм.
S - Снежный покров - Высота снежного покрова, см. При наведении курсора мыши на число - состояние снежного покрова и степень покрытия местности в баллах.